[Iaude] MPEC V19: 2023 VG [a=1.13,e=0.24,i=6.6,H=28.3]
    mpec at marsden.cfa.harvard.edu 
    mpec at marsden.cfa.harvard.edu
       
    Fri Nov  3 22:49:48 EDT 2023
    
    
  
M.P.E.C. 2023-V19                              Issued 2023 November 4, 02:48 UT
     The Minor Planet Electronic Circulars contain information on unusual
         minor planets, routine data on comets and natural satellites,
         and occasional editorial announcements.  They are published
    on behalf of Division F of the International Astronomical Union by the
          Minor Planet Center, Smithsonian Astrophysical Observatory,
                          Cambridge, MA 02138, U.S.A.
			  
             Prepared using the Tamkin Foundation Computer Network
                              MPC at CFA.HARVARD.EDU
            URL https://www.minorplanetcenter.net/    ISSN 1523-6714
                                    2023 VG                                     
Observations:
     K23V00G*1C2023 11 03.26932301 14 53.794+34 23 54.71         16.17GVEV019703
     K23V00G 1C2023 11 03.27471101 15 29.912+34 30 07.81         16.33GVEV019703
     K23V00G 1C2023 11 03.28527701 16 40.296+34 42 01.04         16.15GVEV019703
     K23V00G mC2023 11 03.30963901 19 14.455+35 07 05.23         16.57GVEV019I52
     K23V00G mC2023 11 03.30976201 19 15.208+35 07 12.40         16.27GVEV019I52
     K23V00G mC2023 11 03.30989401 19 16.007+35 07 20.03         16.02GVEV019I52
     K23V00G mC2023 11 03.31002801 19 16.831+35 07 27.88         15.98GVEV019I52
     K23V00G mC2023 11 03.37721901 25 38.244+36 03 11.38         16.94GVEV019I52
     K23V00G mC2023 11 03.37734701 25 38.914+36 03 16.85         16.72GVEV019I52
     K23V00G mC2023 11 03.37747901 25 39.598+36 03 22.46         16.40GVEV019I52
     K23V00G mC2023 11 03.37760301 25 40.271+36 03 27.72         16.27GVEV019I52
     K23V00G  C2023 11 03.44473801 32 52.234+37 06 00.61         17.25oVEV019T05
     K23V00G  C2023 11 03.44796301 33 04.896+37 07 50.05         16.58oVEV019T05
     K23V00G  C2023 11 03.45354401 33 26.707+37 10 56.71         17.11oVEV019T05
     K23V00G  C2023 11 03.46548201 34 12.494+37 17 18.02         16.98oVEV019T05
     K23V00G mC2023 11 03.47216301 33 27.572+36 58 28.06         16.73GVEV019I52
     K23V00G mC2023 11 03.47228601 33 28.138+36 58 31.58         16.59GVEV019I52
     K23V00G mC2023 11 03.47241001 33 28.732+36 58 35.22         16.51GVEV019I52
     K23V00G KC2023 11 03.50625801 40 07.91 +37 31 10.0          16.9 GVEV019900
     K23V00G KC2023 11 03.51153301 40 25.11 +37 34 14.0          16.9 GVEV019900
     K23V00G KC2023 11 03.51680801 40 42.02 +37 37 13.9          17.0 GVEV019900
     K23V00G KC2023 11 03.74139801 53 49.226+38 46 56.96         17.7 GVEV019J95
     K23V00G KC2023 11 03.74314501 53 53.474+38 47 37.57         17.5 GVEV019J95
     K23V00G KB2023 11 03.74450301 53 54.188+38 50 19.14         17.8 GXEV019B72
     K23V00G KC2023 11 03.74488301 53 57.689+38 48 17.57         17.5 GVEV019J95
     K23V00G KC2023 11 03.74658301 54 01.752+38 48 56.66         17.8 GVEV019J95
     K23V00G KB2023 11 03.74742001 54 00.923+38 51 25.39         17.4 GXEV019B72
     K23V00G KB2023 11 03.75045001 54 07.897+38 52 33.42         17.2 GXEV019B72
     K23V00G 1C2023 11 03.80370 01 55 18.57 +39 17 33.3          18.0 GVEV019C40
     K23V00G 1C2023 11 03.80503 01 55 20.81 +39 17 56.2          18.4 GVEV019C40
     K23V00G 1C2023 11 03.80523 01 55 21.16 +39 17 59.7          18.0 GVEV019C40
     K23V00G 1C2023 11 03.80626 01 55 22.91 +39 18 17.2          18.2 GVEV019C40
     K23V00G 1C2023 11 03.80974 01 55 28.69 +39 19 16.0          17.8 GVEV019C40
     K23V00G 1C2023 11 03.81415 01 55 36.02 +39 20 30.1          18.1 GVEV019C40
     K23V00G KC2023 11 03.82127401 56 39.132+39 15 06.37         18.0 GVEV019Z80
     K23V00G KC2023 11 03.82825801 56 52.013+39 17 16.76         17.6 GVEV019Z80
     K23V00G KB2023 11 03.84898 01 57 15.13 +39 23 52.8          18.0 GVEV019L65
     K23V00G KB2023 11 03.85322 01 57 22.23 +39 25 03.3          17.6 GVEV019L65
     K23V00G KC2023 11 03.85520 01 57 07.73 +39 29 39.8          17.8 VqEV019L04
     K23V00G KB2023 11 03.85746 01 57 29.20 +39 26 12.9          17.8 GVEV019L65
     K23V00G KC2023 11 03.85766 01 57 11.50 +39 30 17.5          18.0 VqEV019L04
     K23V00G KC2023 11 03.86029 01 57 15.50 +39 30 57.4          18.0 VqEV019L04
     K23V00G KC2023 11 03.86266 01 57 19.11 +39 31 33.0          17.9 VqEV019L04
     K23V00G KC2023 11 03.87112401 58 06.665+39 29 51.83         17.6 GVEV019J69
     K23V00G KC2023 11 03.87688401 58 15.773+39 31 24.64         17.5 GVEV019J69
     K23V00G KC2023 11 03.88264601 58 24.732+39 32 56.04         17.7 GVEV019J69
     K23V00G KC2023 11 03.88849801 58 33.710+39 34 26.94         17.8 GVEV019J69
     K23V00G hC2023 11 03.94093601 59 25.13 +39 49 24.2          18.3 GVEV019L01
     K23V00G hC2023 11 03.94210901 59 26.67 +39 49 38.0          17.9 GVEV019L01
     K23V00G hC2023 11 03.94374301 59 28.73 +39 49 56.7          18.0 GVEV019L01
     K23V00G hC2023 11 03.94532801 59 30.75 +39 50 15.1          18.0 GVEV019L01
     K23V00G KC2023 11 04.05025102 01 47.72 +40 06 38.4                VEV019204
     K23V00G KC2023 11 04.05226902 01 50.17 +40 06 53.4                VEV019204
     K23V00G KC2023 11 04.05674702 01 55.60 +40 07 26.3          18.2 GVEV019204
Observer details:
204 Schiaparelli Observatory.  Observers L. Buzzi, G. Galli.  0.84-m f/3.5
    reflector + CCD.
703 Catalina Sky Survey.  Observer J. K. Hogan.  Measurers E. C. Beshore, D.
    Fay, J. B. Fazekas, D. C. Fuls, A. R. Gibbs, A. D. Grauer, H. Groeller, J.
    K. Hogan, R. A. Kowalski, S. M. Larson, G. J. Leonard, D. Rankin, R. L.
    Seaman, F. C. Shelly, K. W. Wierzchos.  0.68-m Schmidt + 10K CCD.
900 Moriyama.  Observer Y. Ikari.  0.26-m f/7.0 reflector + CCD.
B72 Soerth.  Observer B. Koch.  0.36-m f/7.6 reflector + CMO.
C40 Kuban State University Astrophysical Observatory.  Observers A. Ivanov, A.
    Barcov, V. Ivanov, V. Lysenko, N. Yakovenko, N. Ivanova, N. Gorbunov, G.
    Kurbatov, P. Shchukin, V. Roshchupko.  Measurer A. Ivanov.  0.51-m f/8
    reflector + CCD.
I52 Steward Observatory, Mt. Lemmon Station.  Observer D. Rankin.  Measurers
    E. C. Beshore, D. Fay, J. B. Fazekas, D. C. Fuls, A. R. Gibbs, A. D.
    Grauer, H. Groeller, J. K. Hogan, R. A. Kowalski, S. M. Larson, G. J.
    Leonard, D. Rankin, R. L. Seaman, F. C. Shelly, K. W. Wierzchos.  1.0-m
    prime focus + CCD.
J69 North Observatory, Clanfield.  Observer D. Briggs.  0.3-m f/5.4 0.3-m
    f/5.4 Newtonian reflector + CCD + CCD.
J95 Great Shefford.  Observer P. Birtwhistle.  0.41-m f/6.3 Schmidt-Cassegrain
    + CCD.
L01 Visnjan Observatory, Tican.  Observers K. Korlevic, L. Poropat.  Measurer
    K. Korlevic.  1.0-m f/2.9 reflector + CCD.
L04 ROASTERR-1 Observatory, Cluj-Napoca.  Observer L. Hudin.  0.3-m f/5
    reflector + CCD.
L65 Bredenkamp Observatory, Bremen.  Observer H. Duin.  0.23-m f/6.3 reflector
    + CMO.
T05 ATLAS-HKO, Haleakala.  Observers L. Denneau, R. Siverd, J. Tonry, H.
    Weiland.  Measurers L. Denneau, N. Erasmus, A. Fitzsimmons, A. Lawrence,
    J. Robinson, R. Siverd, J. Tonry, H. Weiland.  0.5-m Reflector + CCD.
Z80 Northolt Branch Observatory.  Observer G. Wells.  Measurers G. Wells, D.
    Bamberger.  0.25-m f/8.0 Ritchey-Chretien + CCD.
Orbital elements:
2023 VG                                                  Earth MOID = 0.0001 AU
Epoch 2023 Sept. 13.0 TT = JDT 2460200.5                Veres                   
M   6.82439              (2000.0)            P               Q                  
n   0.82546343     Peri.  285.82645     +0.82110831     +0.56597434             
a   1.1254792      Node    39.78458     -0.46950065     +0.74332140             
e   0.2438593      Incl.    6.62739     -0.32457708     +0.35657585             
P   1.19           H   28.32          G   0.15           U   6                  
Residuals in seconds of arc
231103 703 (2.2+  1.7+)   231103 900  0.2-  0.1+    231103 L65  0.1+  0.1+
231103 703 (3.3-  2.3-)   231103 900  0.1-  0.2+    231103 L65  0.3+  0.0
231103 703  0.7+  0.1+    231103 900  0.1-  0.0     231103 L04  0.0   0.1+
231103 I52  0.2-  0.1-    231103 J95  0.1+  0.1-    231103 L65  0.0   0.0
231103 I52  0.3-  0.1-    231103 J95  0.0   0.2+    231103 L04  0.1-  0.0
231103 I52  0.4-  0.1-    231103 B72  0.1-  0.2+    231103 L04  0.2-  0.0
231103 I52  0.3-  0.1-    231103 J95  0.1+  0.1+    231103 L04  0.0   0.0
231103 I52  0.1-  0.1-    231103 J95  0.3-  0.2+    231103 J69  0.0   0.2-
231103 I52  0.2-  0.0     231103 B72  0.2-  0.2+    231103 J69  0.0   0.3-
231103 I52  0.3-  0.0     231103 B72  0.3+  0.0     231103 J69  0.1-  0.2-
231103 I52  0.1-  0.0     231103 C40  0.4+  0.2+    231103 J69  0.2+  0.1-
231103 T05  0.3-  0.1-    231103 C40  0.3+  0.2+    231103 L01  0.3-  0.3-
231103 T05  0.3-  0.4-    231103 C40  0.4+  0.3+    231103 L01  0.0   0.0
231103 T05  0.5+  0.3+    231103 C40  0.6+  0.2+    231103 L01  0.5-  0.1-
231103 T05  0.3-  0.1-    231103 C40  0.0   0.1-    231103 L01  0.7-  0.2+
231103 I52  0.1-  0.0     231103 C40  0.2+  0.3+    231104 204  0.0   0.1+
231103 I52  0.2-  0.1-    231103 Z80  0.3-  0.1+    231104 204  0.1+  0.0
231103 I52  0.0   0.0     231103 Z80  0.1-  0.1+    231104 204  0.1+  0.1+
Ephemeris:
2023 VG                  a,e,i = 1.13, 0.24, 7                   q = 0.8510
Date    TT    R. A. (2000) Decl.     Delta      r    Elong.  Phase     V
2023 10 05    14 06 48.6 -37 50 55   0.1419  0.8940    38.7   135.6    30.1
...
2023 10 20    14 13 46.8 -40 32 51   0.06557 0.9408    31.6   146.3    30.1
...
2023 10 28    14 19 03.5 -41 36 43   0.02724 0.9700    28.9   150.3    28.9
...
2023 11 03    00 13 16.6 +23 11 10   0.0013390.9933   146.6    33.3    15.3
2023 11 04    02 01 18.5 +40 02 41   0.0058800.9972   154.1    25.8    18.3
2023 11 05    02 17 37.2 +41 36 33   0.01056 1.0012   153.4    26.3    19.6
...
2023 11 11    02 33 06.5 +42 41 01   0.03885 1.0253   153.8    25.3    22.5
...
2023 11 19    02 36 56.4 +42 17 12   0.07760 1.0587   153.9    24.2    24.0
...
2023 12 04    02 45 00.5 +40 44 01   0.1563  1.1234   149.7    26.3    25.7
M. P. C. Staff               (C) Copyright 2023 MPC           M.P.E.C. 2023-V19
    
    
More information about the Iaude
mailing list